Location: La Tine
(46.4708°N, 7.0525°E)
Time: 17:03:25
(UTC+00:00)

Resurs 01 Rocket - Pass Details

Date: 18 September 2020
Orbit: 633 x 645 km, 98.0° (Epoch: 30 October)

Event Time Altitude Azimuth Distance (km) Brightness Sun altitude
Exits shadow 19:19:14 32° 81° (E) 1,117 2.4 -18.0°
Maximum altitude 19:19:44 33° 68° (ENE) 1,096 2.4 -18.1°
Drops below altitude 10° 19:23:44 10° 4° (N) 2,053 4.4 -18.7°
Sets 19:26:06 0° 355° (N) 2,966 5.4 -19.1°
